Year,Month,Day,Hour,Minute,Value (Times are PST for temperature in C)
2013,10,15,00,00,6.90
2013,10,15,00,01,6.90
2013,10,15,00,02,6.90
2013,10,15,00,03,6.90
2013,10,15,00,04,6.90
2013,10,15,00,05,6.90
2013,10,15,00,06,6.90
2013,10,15,00,07,6.90
2013,10,15,00,08,6.90
2013,10,15,00,09,6.90
2013,10,15,00,10,6.90
2013,10,15,00,11,6.90
2013,10,15,00,12,6.90
2013,10,15,00,13,6.90
2013,10,15,00,14,6.90
2013,10,15,00,15,6.90
2013,10,15,00,16,6.90
2013,10,15,00,17,6.90
2013,10,15,00,18,6.90
2013,10,15,00,19,6.90
2013,10,15,00,20,7.00
2013,10,15,00,21,7.00
2013,10,15,00,22,7.00
2013,10,15,00,23,7.00
2013,10,15,00,24,7.00
2013,10,15,00,25,7.00
2013,10,15,00,26,7.10
2013,10,15,00,27,7.10
2013,10,15,00,28,7.00
2013,10,15,00,29,7.00
2013,10,15,00,30,7.00
2013,10,15,00,31,6.90
2013,10,15,00,32,6.90
2013,10,15,00,33,6.90
2013,10,15,00,34,6.90
2013,10,15,00,35,6.90
2013,10,15,00,36,6.90
2013,10,15,00,37,6.90
2013,10,15,00,38,6.90
2013,10,15,00,39,6.90
2013,10,15,00,40,6.90
2013,10,15,00,41,6.90
2013,10,15,00,42,6.90
2013,10,15,00,43,6.90
2013,10,15,00,44,6.90
2013,10,15,00,45,6.90
2013,10,15,00,46,6.90
2013,10,15,00,47,6.90
2013,10,15,00,48,6.90
2013,10,15,00,49,6.90
2013,10,15,00,50,6.90
2013,10,15,00,51,6.90
2013,10,15,00,52,6.90
2013,10,15,00,53,6.90
2013,10,15,00,54,6.90
2013,10,15,00,55,6.90
2013,10,15,00,56,6.90
2013,10,15,00,57,6.90
2013,10,15,00,58,6.80
2013,10,15,00,59,6.80
2013,10,15,01,00,6.80
2013,10,15,01,01,6.80
2013,10,15,01,02,6.80
2013,10,15,01,03,6.80
2013,10,15,01,04,6.80
2013,10,15,01,05,6.70
2013,10,15,01,06,6.70
2013,10,15,01,07,6.70
2013,10,15,01,08,6.70
2013,10,15,01,09,6.70
2013,10,15,01,10,6.70
2013,10,15,01,11,6.70
2013,10,15,01,12,6.70
2013,10,15,01,13,6.70
2013,10,15,01,14,6.70
2013,10,15,01,15,6.60
2013,10,15,01,16,6.60
2013,10,15,01,17,6.60
2013,10,15,01,18,6.60
2013,10,15,01,19,6.60
2013,10,15,01,20,6.50
2013,10,15,01,21,6.50
2013,10,15,01,22,6.50
2013,10,15,01,23,6.50
2013,10,15,01,24,6.50
2013,10,15,01,25,6.50
2013,10,15,01,26,6.50
2013,10,15,01,27,6.50
2013,10,15,01,28,6.50
2013,10,15,01,29,6.40
2013,10,15,01,30,6.40
2013,10,15,01,31,6.40
2013,10,15,01,32,6.40
2013,10,15,01,33,6.40
2013,10,15,01,34,6.40
2013,10,15,01,35,6.40
2013,10,15,01,36,6.50
2013,10,15,01,37,6.50
2013,10,15,01,38,6.50
2013,10,15,01,39,6.50
2013,10,15,01,40,6.50
2013,10,15,01,41,6.50
2013,10,15,01,42,6.50
2013,10,15,01,43,6.50
2013,10,15,01,44,6.50
2013,10,15,01,45,6.50
2013,10,15,01,46,6.50
2013,10,15,01,47,6.50
2013,10,15,01,48,6.50
2013,10,15,01,49,6.40
2013,10,15,01,50,6.40
2013,10,15,01,51,6.40
2013,10,15,01,52,6.40
2013,10,15,01,53,6.40
2013,10,15,01,54,6.40
2013,10,15,01,55,6.40
2013,10,15,01,56,6.30
2013,10,15,01,57,6.30
2013,10,15,01,58,6.30
2013,10,15,01,59,6.30
2013,10,15,02,00,6.30
2013,10,15,02,01,6.30
2013,10,15,02,02,6.30
2013,10,15,02,03,6.20
2013,10,15,02,04,6.20
2013,10,15,02,05,6.30
2013,10,15,02,06,6.30
2013,10,15,02,07,6.30
2013,10,15,02,08,6.30
2013,10,15,02,09,6.30
2013,10,15,02,10,6.30
2013,10,15,02,11,6.30
2013,10,15,02,12,6.20
2013,10,15,02,13,6.20
2013,10,15,02,14,6.20
2013,10,15,02,15,6.20
2013,10,15,02,16,6.20
2013,10,15,02,17,6.30
2013,10,15,02,18,6.30
2013,10,15,02,19,6.30
2013,10,15,02,20,6.30
2013,10,15,02,21,6.30
2013,10,15,02,22,6.30
2013,10,15,02,23,6.30
2013,10,15,02,24,6.30
2013,10,15,02,25,6.30
2013,10,15,02,26,6.30
2013,10,15,02,27,6.30
2013,10,15,02,28,6.30
2013,10,15,02,29,6.30
2013,10,15,02,30,6.30
2013,10,15,02,31,6.30
2013,10,15,02,32,6.30
2013,10,15,02,33,6.30
2013,10,15,02,34,6.30
2013,10,15,02,35,6.30
2013,10,15,02,36,6.20
2013,10,15,02,37,6.20
2013,10,15,02,38,6.20
2013,10,15,02,39,6.20
2013,10,15,02,40,6.20
2013,10,15,02,41,6.30
2013,10,15,02,42,6.30
2013,10,15,02,43,6.30
2013,10,15,02,44,6.20
2013,10,15,02,45,6.20
2013,10,15,02,46,6.20
2013,10,15,02,47,6.20
2013,10,15,02,48,6.20
2013,10,15,02,49,6.20
2013,10,15,02,50,6.20
2013,10,15,02,51,6.10
2013,10,15,02,52,6.10
2013,10,15,02,53,6.10
2013,10,15,02,54,6.10
2013,10,15,02,55,6.10
2013,10,15,02,56,6.10
2013,10,15,02,57,6.10
2013,10,15,02,58,6.20
2013,10,15,02,59,6.20
2013,10,15,03,00,6.20
2013,10,15,03,01,6.30
2013,10,15,03,02,6.30
2013,10,15,03,03,6.30
2013,10,15,03,04,6.30
2013,10,15,03,05,6.30
2013,10,15,03,06,6.30
2013,10,15,03,07,6.30
2013,10,15,03,08,6.30
2013,10,15,03,09,6.30
2013,10,15,03,10,6.30
2013,10,15,03,11,6.30
2013,10,15,03,12,6.30
2013,10,15,03,13,6.20
2013,10,15,03,14,6.20
2013,10,15,03,15,6.20
2013,10,15,03,16,6.20
2013,10,15,03,17,6.10
2013,10,15,03,18,6.10
2013,10,15,03,19,6.10
2013,10,15,03,20,6.10
2013,10,15,03,21,6.10
2013,10,15,03,22,6.00
2013,10,15,03,23,6.00
2013,10,15,03,24,5.90
2013,10,15,03,25,5.90
2013,10,15,03,26,5.90
2013,10,15,03,27,5.90
2013,10,15,03,28,5.90
2013,10,15,03,29,6.00
2013,10,15,03,30,6.00
2013,10,15,03,31,6.00
2013,10,15,03,32,6.00
2013,10,15,03,33,6.00
2013,10,15,03,34,6.00
2013,10,15,03,35,6.00
2013,10,15,03,36,6.00
2013,10,15,03,37,6.00
2013,10,15,03,38,6.00
2013,10,15,03,39,6.00
2013,10,15,03,40,6.00
2013,10,15,03,41,6.00
2013,10,15,03,42,6.00
2013,10,15,03,43,6.00
2013,10,15,03,44,6.10
2013,10,15,03,45,6.10
2013,10,15,03,46,6.10
2013,10,15,03,47,6.20
2013,10,15,03,48,6.20
2013,10,15,03,49,6.20
2013,10,15,03,50,6.30
2013,10,15,03,51,6.30
2013,10,15,03,52,6.30
2013,10,15,03,53,6.30
2013,10,15,03,54,6.30
2013,10,15,03,55,6.30
2013,10,15,03,56,6.30
2013,10,15,03,57,6.30
2013,10,15,03,58,6.30
2013,10,15,03,59,6.30
2013,10,15,04,00,6.30
2013,10,15,04,01,6.30
2013,10,15,04,02,6.30
2013,10,15,04,03,6.30
2013,10,15,04,04,6.30
2013,10,15,04,05,6.30
2013,10,15,04,06,6.30
2013,10,15,04,07,6.30
2013,10,15,04,08,6.20
2013,10,15,04,09,6.20
2013,10,15,04,10,6.20
2013,10,15,04,11,6.20
2013,10,15,04,12,6.20
2013,10,15,04,13,6.20
2013,10,15,04,14,6.20
2013,10,15,04,15,6.20
2013,10,15,04,16,6.20
2013,10,15,04,17,6.20
2013,10,15,04,18,6.20
2013,10,15,04,19,6.10
2013,10,15,04,20,6.10
2013,10,15,04,21,6.10
2013,10,15,04,22,6.10
2013,10,15,04,23,6.10
2013,10,15,04,24,6.10
2013,10,15,04,25,6.10
2013,10,15,04,26,6.10
2013,10,15,04,27,6.10
2013,10,15,04,28,6.10
2013,10,15,04,29,6.10
2013,10,15,04,30,6.10
2013,10,15,04,31,6.10
2013,10,15,04,32,6.00
2013,10,15,04,33,6.00
2013,10,15,04,34,6.00
2013,10,15,04,35,6.00
2013,10,15,04,36,6.00
2013,10,15,04,37,6.10
2013,10,15,04,38,6.10
2013,10,15,04,39,6.10
2013,10,15,04,40,6.10
2013,10,15,04,41,6.20
2013,10,15,04,42,6.20
2013,10,15,04,43,6.20
2013,10,15,04,44,6.20
2013,10,15,04,45,6.10
2013,10,15,04,46,6.10
2013,10,15,04,47,6.10
2013,10,15,04,48,6.10
2013,10,15,04,49,6.10
2013,10,15,04,50,6.10
2013,10,15,04,51,6.10
2013,10,15,04,52,6.10
2013,10,15,04,53,6.10
2013,10,15,04,54,6.10
2013,10,15,04,55,6.10
2013,10,15,04,56,6.10
2013,10,15,04,57,6.10
2013,10,15,04,58,6.10
2013,10,15,04,59,6.10
2013,10,15,05,00,6.10
2013,10,15,05,01,6.00
2013,10,15,05,02,6.00
2013,10,15,05,03,6.00
2013,10,15,05,04,6.00
2013,10,15,05,05,6.00
2013,10,15,05,06,6.00
2013,10,15,05,07,6.00
2013,10,15,05,08,6.10
2013,10,15,05,09,6.10
2013,10,15,05,10,6.10
2013,10,15,05,11,6.10
2013,10,15,05,12,6.10
2013,10,15,05,13,6.10
2013,10,15,05,14,6.10
2013,10,15,05,15,6.10
2013,10,15,05,16,6.10
2013,10,15,05,17,6.10
2013,10,15,05,18,6.20
2013,10,15,05,19,6.20
2013,10,15,05,20,6.20
2013,10,15,05,21,6.20
2013,10,15,05,22,6.20
2013,10,15,05,23,6.20
2013,10,15,05,24,6.20
2013,10,15,05,25,6.20
2013,10,15,05,26,6.20
2013,10,15,05,27,6.20
2013,10,15,05,28,6.20
2013,10,15,05,29,6.20
2013,10,15,05,30,6.20
2013,10,15,05,31,6.20
2013,10,15,05,32,6.20
2013,10,15,05,33,6.20
2013,10,15,05,34,6.20
2013,10,15,05,35,6.20
2013,10,15,05,36,6.20
2013,10,15,05,37,6.20
2013,10,15,05,38,6.20
2013,10,15,05,39,6.10
2013,10,15,05,40,6.10
2013,10,15,05,41,6.10
2013,10,15,05,42,6.10
2013,10,15,05,43,6.10
2013,10,15,05,44,6.10
2013,10,15,05,45,6.10
2013,10,15,05,46,6.20
2013,10,15,05,47,6.20
2013,10,15,05,48,6.20
2013,10,15,05,49,6.20
2013,10,15,05,50,6.20
2013,10,15,05,51,6.20
2013,10,15,05,52,6.20
2013,10,15,05,53,6.20
2013,10,15,05,54,6.20
2013,10,15,05,55,6.20
2013,10,15,05,56,6.20
2013,10,15,05,57,6.20
2013,10,15,05,58,6.20
2013,10,15,05,59,6.20
2013,10,15,06,00,6.20
2013,10,15,06,01,6.20
2013,10,15,06,02,6.20
2013,10,15,06,03,6.20
2013,10,15,06,04,6.20
2013,10,15,06,05,6.20
2013,10,15,06,06,6.20
2013,10,15,06,07,6.30
2013,10,15,06,08,6.30
2013,10,15,06,09,6.30
2013,10,15,06,10,6.30
2013,10,15,06,11,6.30
2013,10,15,06,12,6.30
2013,10,15,06,13,6.30
2013,10,15,06,14,6.30
2013,10,15,06,15,6.30
2013,10,15,06,16,6.30
2013,10,15,06,17,6.30
2013,10,15,06,18,6.30
2013,10,15,06,19,6.30
2013,10,15,06,20,6.30
2013,10,15,06,21,6.30
2013,10,15,06,22,6.30
2013,10,15,06,23,6.30
2013,10,15,06,24,6.30
2013,10,15,06,25,6.30
2013,10,15,06,26,6.30
2013,10,15,06,27,6.30
2013,10,15,06,28,6.30
2013,10,15,06,29,6.30
2013,10,15,06,30,6.30
2013,10,15,06,31,6.30
2013,10,15,06,32,6.30
2013,10,15,06,33,6.30
2013,10,15,06,34,6.30
2013,10,15,06,35,6.30
2013,10,15,06,36,6.30
2013,10,15,06,37,6.30
2013,10,15,06,38,6.30
2013,10,15,06,39,6.30
2013,10,15,06,40,6.30
2013,10,15,06,41,6.30
2013,10,15,06,42,6.30
2013,10,15,06,43,6.30
2013,10,15,06,44,6.30
2013,10,15,06,45,6.30
2013,10,15,06,46,6.30
2013,10,15,06,47,6.30
2013,10,15,06,48,6.30
2013,10,15,06,49,6.20
2013,10,15,06,50,6.20
2013,10,15,06,51,6.20
2013,10,15,06,52,6.20
2013,10,15,06,53,6.20
2013,10,15,06,54,6.20
2013,10,15,06,55,6.20
2013,10,15,06,56,6.20
2013,10,15,06,57,6.20
2013,10,15,06,58,6.20
2013,10,15,06,59,6.20
2013,10,15,07,00,6.10
2013,10,15,07,01,6.10
2013,10,15,07,02,6.10
2013,10,15,07,03,6.10
2013,10,15,07,04,6.10
2013,10,15,07,05,6.10
2013,10,15,07,06,6.10
2013,10,15,07,07,6.10
2013,10,15,07,08,6.10
2013,10,15,07,09,6.10
2013,10,15,07,10,6.10
2013,10,15,07,11,6.10
2013,10,15,07,12,6.10
2013,10,15,07,13,6.10
2013,10,15,07,14,6.10
2013,10,15,07,15,6.20
2013,10,15,07,16,6.20
2013,10,15,07,17,6.20
2013,10,15,07,18,6.20
2013,10,15,07,19,6.20
2013,10,15,07,20,6.20
2013,10,15,07,21,6.20
2013,10,15,07,22,6.20
2013,10,15,07,23,6.10
2013,10,15,07,24,6.10
2013,10,15,07,25,6.10
2013,10,15,07,26,6.10
2013,10,15,07,27,6.10
2013,10,15,07,28,6.10
2013,10,15,07,29,6.00
2013,10,15,07,30,6.00
2013,10,15,07,31,6.00
2013,10,15,07,32,5.90
2013,10,15,07,33,5.90
2013,10,15,07,34,5.90
2013,10,15,07,35,5.90
2013,10,15,07,36,5.90
2013,10,15,07,37,5.90
2013,10,15,07,38,5.90
2013,10,15,07,39,5.90
2013,10,15,07,40,5.90
2013,10,15,07,41,5.90
2013,10,15,07,42,5.90
2013,10,15,07,43,5.90
2013,10,15,07,44,5.90
2013,10,15,07,45,5.90
2013,10,15,07,46,5.90
2013,10,15,07,47,5.90
2013,10,15,07,48,5.90
2013,10,15,07,49,5.90
2013,10,15,07,50,5.90
2013,10,15,07,51,5.90
2013,10,15,07,52,5.90
2013,10,15,07,53,5.90
2013,10,15,07,54,5.90
2013,10,15,07,55,6.00
2013,10,15,07,56,6.00
2013,10,15,07,57,6.00
2013,10,15,07,58,6.00
2013,10,15,07,59,6.10
2013,10,15,08,00,6.10
2013,10,15,08,01,6.10
2013,10,15,08,02,6.10
2013,10,15,08,03,6.10
2013,10,15,08,04,6.10
2013,10,15,08,05,6.10
2013,10,15,08,06,6.10
2013,10,15,08,07,6.00
2013,10,15,08,08,6.00
2013,10,15,08,09,6.00
2013,10,15,08,10,6.00
2013,10,15,08,11,6.00
2013,10,15,08,12,6.00
2013,10,15,08,13,6.00
2013,10,15,08,14,5.90
2013,10,15,08,15,5.90
2013,10,15,08,16,5.90
2013,10,15,08,17,5.90
2013,10,15,08,18,5.90
2013,10,15,08,19,5.90
2013,10,15,08,20,6.00
2013,10,15,08,21,6.00
2013,10,15,08,22,6.00
2013,10,15,08,23,6.00
2013,10,15,08,24,6.00
2013,10,15,08,25,6.00
2013,10,15,08,26,6.00
2013,10,15,08,27,6.10
2013,10,15,08,28,6.10
2013,10,15,08,29,6.10
2013,10,15,08,30,6.20
2013,10,15,08,31,6.20
2013,10,15,08,32,6.20
2013,10,15,08,33,6.20
2013,10,15,08,34,6.20
2013,10,15,08,35,6.20
2013,10,15,08,36,6.20
2013,10,15,08,37,6.20
2013,10,15,08,38,6.20
2013,10,15,08,39,6.20
2013,10,15,08,40,6.20
2013,10,15,08,41,6.20
2013,10,15,08,42,6.20
2013,10,15,08,43,6.20
2013,10,15,08,44,6.20
2013,10,15,08,45,6.20
2013,10,15,08,46,6.20
2013,10,15,08,47,6.30
2013,10,15,08,48,6.30
2013,10,15,08,49,6.30
2013,10,15,08,50,6.30
2013,10,15,08,51,6.30
2013,10,15,08,52,6.30
2013,10,15,08,53,6.40
2013,10,15,08,54,6.40
2013,10,15,08,55,6.40
2013,10,15,08,56,6.40
2013,10,15,08,57,6.50
2013,10,15,08,58,6.50
2013,10,15,08,59,6.50
2013,10,15,09,00,6.60
2013,10,15,09,01,6.60
2013,10,15,09,02,6.60
2013,10,15,09,03,6.60
2013,10,15,09,04,6.70
2013,10,15,09,05,6.70
2013,10,15,09,06,6.70
2013,10,15,09,07,6.70
2013,10,15,09,08,6.70
2013,10,15,09,09,6.80
2013,10,15,09,10,6.80
2013,10,15,09,11,6.80
2013,10,15,09,12,6.80
2013,10,15,09,13,6.80
2013,10,15,09,14,6.90
2013,10,15,09,15,6.90
2013,10,15,09,16,6.90
2013,10,15,09,17,7.00
2013,10,15,09,18,7.00
2013,10,15,09,19,7.00
2013,10,15,09,20,7.00
2013,10,15,09,21,7.00
2013,10,15,09,22,7.00
2013,10,15,09,23,7.10
2013,10,15,09,24,7.10
2013,10,15,09,25,7.10
2013,10,15,09,26,7.20
2013,10,15,09,27,7.20
2013,10,15,09,28,7.20
2013,10,15,09,29,7.20
2013,10,15,09,30,7.30
2013,10,15,09,31,7.30
2013,10,15,09,32,7.30
2013,10,15,09,33,7.40
2013,10,15,09,34,7.40
2013,10,15,09,35,7.40
2013,10,15,09,36,7.40
2013,10,15,09,37,7.50
2013,10,15,09,38,7.50
2013,10,15,09,39,7.60
2013,10,15,09,40,7.60
2013,10,15,09,41,7.70
2013,10,15,09,42,7.70
2013,10,15,09,43,7.70
2013,10,15,09,44,7.80
2013,10,15,09,45,7.80
2013,10,15,09,46,7.80
2013,10,15,09,47,7.80
2013,10,15,09,48,7.80
2013,10,15,09,49,7.90
2013,10,15,09,50,7.90
2013,10,15,09,51,7.90
2013,10,15,09,52,8.00
2013,10,15,09,53,8.00
2013,10,15,09,54,8.00
2013,10,15,09,55,8.10
2013,10,15,09,56,8.10
2013,10,15,09,57,8.10
2013,10,15,09,58,8.20
2013,10,15,09,59,8.20
2013,10,15,10,00,8.20
2013,10,15,10,01,8.20
2013,10,15,10,02,8.30
2013,10,15,10,03,8.30
2013,10,15,10,04,8.30
2013,10,15,10,05,8.40
2013,10,15,10,06,8.40
2013,10,15,10,07,8.40
2013,10,15,10,08,8.50
2013,10,15,10,09,8.60
2013,10,15,10,10,8.70
2013,10,15,10,11,8.80
2013,10,15,10,12,8.80
2013,10,15,10,13,8.90
2013,10,15,10,14,9.00
2013,10,15,10,15,9.00
2013,10,15,10,16,9.10
2013,10,15,10,17,9.10
2013,10,15,10,18,9.10
2013,10,15,10,19,9.20
2013,10,15,10,20,9.20
2013,10,15,10,21,9.30
2013,10,15,10,22,9.30
2013,10,15,10,23,9.30
2013,10,15,10,24,9.40
2013,10,15,10,25,9.40
2013,10,15,10,26,9.50
2013,10,15,10,27,9.50
2013,10,15,10,28,9.60
2013,10,15,10,29,9.60
2013,10,15,10,30,9.60
2013,10,15,10,31,9.70
2013,10,15,10,32,9.80
2013,10,15,10,33,9.80
2013,10,15,10,34,9.90
2013,10,15,10,35,9.90
2013,10,15,10,36,10.00
2013,10,15,10,37,10.00
2013,10,15,10,38,10.10
2013,10,15,10,39,10.10
2013,10,15,10,40,10.20
2013,10,15,10,41,10.30
2013,10,15,10,42,10.30
2013,10,15,10,43,10.40
2013,10,15,10,44,10.50
2013,10,15,10,45,10.60
2013,10,15,10,46,10.60
2013,10,15,10,47,10.60
2013,10,15,10,48,10.70
2013,10,15,10,49,10.80
2013,10,15,10,50,10.80
2013,10,15,10,51,10.90
2013,10,15,10,52,11.00
2013,10,15,10,53,11.00
2013,10,15,10,54,11.10
2013,10,15,10,55,11.10
2013,10,15,10,56,11.20
2013,10,15,10,57,11.20
2013,10,15,10,58,11.30
2013,10,15,10,59,11.30
2013,10,15,11,00,11.30
2013,10,15,11,01,11.30
2013,10,15,11,02,11.40
2013,10,15,11,03,11.50
2013,10,15,11,04,11.60
2013,10,15,11,05,11.60
2013,10,15,11,06,11.70
2013,10,15,11,07,11.80
2013,10,15,11,08,11.90
2013,10,15,11,09,12.00
2013,10,15,11,10,12.10
2013,10,15,11,11,12.20
2013,10,15,11,12,12.30
2013,10,15,11,13,12.40
2013,10,15,11,14,12.40
2013,10,15,11,15,12.50
2013,10,15,11,16,12.60
2013,10,15,11,17,12.70
2013,10,15,11,18,12.80
2013,10,15,11,19,12.80
2013,10,15,11,20,12.90
2013,10,15,11,21,12.90
2013,10,15,11,22,13.00
2013,10,15,11,23,13.00
2013,10,15,11,24,13.10
2013,10,15,11,25,13.10
2013,10,15,11,26,13.10
2013,10,15,11,27,13.10
2013,10,15,11,28,13.10
2013,10,15,11,29,13.00
2013,10,15,11,30,13.00
2013,10,15,11,31,13.00
2013,10,15,11,32,13.00
2013,10,15,11,33,13.00
2013,10,15,11,34,13.10
2013,10,15,11,35,13.10
2013,10,15,11,36,13.10
2013,10,15,11,37,13.10
2013,10,15,11,38,13.10
2013,10,15,11,39,13.10
2013,10,15,11,40,13.10
2013,10,15,11,41,13.00
2013,10,15,11,42,12.90
2013,10,15,11,43,12.90
2013,10,15,11,44,12.90
2013,10,15,11,45,12.80
2013,10,15,11,46,12.80
2013,10,15,11,47,12.80
2013,10,15,11,48,12.80
2013,10,15,11,49,12.80
2013,10,15,11,50,12.80
2013,10,15,11,51,12.80
2013,10,15,11,52,12.80
2013,10,15,11,53,12.80
2013,10,15,11,54,12.90
2013,10,15,11,55,12.90
2013,10,15,11,56,12.90
2013,10,15,11,57,13.00
2013,10,15,11,58,13.00
2013,10,15,11,59,13.10
2013,10,15,12,00,13.10
2013,10,15,12,01,13.10
2013,10,15,12,02,13.20
2013,10,15,12,03,13.20
2013,10,15,12,04,13.20
2013,10,15,12,05,13.20
2013,10,15,12,06,13.30
2013,10,15,12,07,13.30
2013,10,15,12,08,13.30
2013,10,15,12,09,13.40
2013,10,15,12,10,13.40
2013,10,15,12,11,13.40
2013,10,15,12,12,13.40
2013,10,15,12,13,13.50
2013,10,15,12,14,13.50
2013,10,15,12,15,13.60
2013,10,15,12,16,13.60
2013,10,15,12,17,13.60
2013,10,15,12,18,13.70
2013,10,15,12,19,13.70
2013,10,15,12,20,13.80
2013,10,15,12,21,13.80
2013,10,15,12,22,13.80
2013,10,15,12,23,13.90
2013,10,15,12,24,13.90
2013,10,15,12,25,14.00
2013,10,15,12,26,14.10
2013,10,15,12,27,14.10
2013,10,15,12,28,14.20
2013,10,15,12,29,14.20
2013,10,15,12,30,14.30
2013,10,15,12,31,14.30
2013,10,15,12,32,14.30
2013,10,15,12,33,14.30
2013,10,15,12,34,14.30
2013,10,15,12,35,14.30
2013,10,15,12,36,14.30
2013,10,15,12,37,14.30
2013,10,15,12,38,14.30
2013,10,15,12,39,14.30
2013,10,15,12,40,14.30
2013,10,15,12,41,14.40
2013,10,15,12,42,14.40
2013,10,15,12,43,14.40
2013,10,15,12,44,14.50
2013,10,15,12,45,14.50
2013,10,15,12,46,14.50
2013,10,15,12,47,14.60
2013,10,15,12,48,14.60
2013,10,15,12,49,14.60
2013,10,15,12,50,14.60
2013,10,15,12,51,14.60
2013,10,15,12,52,14.50
2013,10,15,12,53,14.40
2013,10,15,12,54,14.30
2013,10,15,12,55,14.20
2013,10,15,12,56,14.20
2013,10,15,12,57,14.20
2013,10,15,12,58,14.20
2013,10,15,12,59,14.20
2013,10,15,13,00,14.20
2013,10,15,13,01,14.20
2013,10,15,13,02,14.20
2013,10,15,13,03,14.20
2013,10,15,13,04,14.20
2013,10,15,13,05,14.30
2013,10,15,13,06,14.30
2013,10,15,13,07,14.40
2013,10,15,13,08,14.50
2013,10,15,13,09,14.50
2013,10,15,13,10,14.50
2013,10,15,13,11,14.50
2013,10,15,13,12,14.60
2013,10,15,13,13,14.60
2013,10,15,13,14,14.60
2013,10,15,13,15,14.60
2013,10,15,13,16,14.60
2013,10,15,13,17,14.60
2013,10,15,13,18,14.70
2013,10,15,13,19,14.70
2013,10,15,13,20,14.70
2013,10,15,13,21,14.60
2013,10,15,13,22,14.60
2013,10,15,13,23,14.60
2013,10,15,13,24,14.60
2013,10,15,13,25,14.60
2013,10,15,13,26,14.60
2013,10,15,13,27,14.60
2013,10,15,13,28,14.60
2013,10,15,13,29,14.60
2013,10,15,13,30,14.60
2013,10,15,13,31,14.70
2013,10,15,13,32,14.70
2013,10,15,13,33,14.80
2013,10,15,13,34,14.80
2013,10,15,13,35,14.90
2013,10,15,13,36,15.00
2013,10,15,13,37,15.00
2013,10,15,13,38,15.00
2013,10,15,13,39,15.00
2013,10,15,13,40,15.00
2013,10,15,13,41,15.10
2013,10,15,13,42,15.20
2013,10,15,13,43,15.20
2013,10,15,13,44,15.20
2013,10,15,13,45,15.20
2013,10,15,13,46,15.20
2013,10,15,13,47,15.20
2013,10,15,13,48,15.20
2013,10,15,13,49,15.30
2013,10,15,13,50,15.30
2013,10,15,13,51,15.20
2013,10,15,13,52,15.20
2013,10,15,13,53,15.20
2013,10,15,13,54,15.20
2013,10,15,13,55,15.20
2013,10,15,13,56,15.20
2013,10,15,13,57,15.20
2013,10,15,13,58,15.20
2013,10,15,13,59,15.20
2013,10,15,14,00,15.30
2013,10,15,14,01,15.30
2013,10,15,14,02,15.40
2013,10,15,14,03,15.40
2013,10,15,14,04,15.50
2013,10,15,14,05,15.60
2013,10,15,14,06,15.60
2013,10,15,14,07,15.70
2013,10,15,14,08,15.80
2013,10,15,14,09,15.90
2013,10,15,14,10,16.00
2013,10,15,14,11,16.00
2013,10,15,14,12,16.10
2013,10,15,14,13,16.10
2013,10,15,14,14,16.20
2013,10,15,14,15,16.20
2013,10,15,14,16,16.20
2013,10,15,14,17,16.20
2013,10,15,14,18,16.10
2013,10,15,14,19,16.10
2013,10,15,14,20,16.10
2013,10,15,14,21,16.00
2013,10,15,14,22,16.00
2013,10,15,14,23,15.90
2013,10,15,14,24,15.80
2013,10,15,14,25,15.80
2013,10,15,14,26,15.70
2013,10,15,14,27,15.70
2013,10,15,14,28,15.60
2013,10,15,14,29,15.60
2013,10,15,14,30,15.50
2013,10,15,14,31,15.50
2013,10,15,14,32,15.40
2013,10,15,14,33,15.30
2013,10,15,14,34,15.30
2013,10,15,14,35,15.30
2013,10,15,14,36,15.20
2013,10,15,14,37,15.10
2013,10,15,14,38,15.00
2013,10,15,14,39,15.00
2013,10,15,14,40,15.00
2013,10,15,14,41,15.00
2013,10,15,14,42,15.00
2013,10,15,14,43,15.00
2013,10,15,14,44,14.90
2013,10,15,14,45,14.80
2013,10,15,14,46,14.80
2013,10,15,14,47,14.80
2013,10,15,14,48,14.80
2013,10,15,14,49,14.80
2013,10,15,14,50,14.80
2013,10,15,14,51,14.80
2013,10,15,14,52,14.80
2013,10,15,14,53,14.80
2013,10,15,14,54,14.80
2013,10,15,14,55,14.80
2013,10,15,14,56,14.80
2013,10,15,14,57,14.80
2013,10,15,14,58,14.80
2013,10,15,14,59,14.90
2013,10,15,15,00,14.90
2013,10,15,15,01,15.00
2013,10,15,15,02,15.00
2013,10,15,15,03,15.00
2013,10,15,15,04,15.10
2013,10,15,15,05,15.20
2013,10,15,15,06,15.30
2013,10,15,15,07,15.40
2013,10,15,15,08,15.50
2013,10,15,15,09,15.60
2013,10,15,15,10,15.70
2013,10,15,15,11,15.70
2013,10,15,15,12,15.80
2013,10,15,15,13,15.80
2013,10,15,15,14,15.90
2013,10,15,15,15,15.90
2013,10,15,15,16,15.90
2013,10,15,15,17,16.00
2013,10,15,15,18,16.10
2013,10,15,15,19,16.10
2013,10,15,15,20,16.10
2013,10,15,15,21,16.10
2013,10,15,15,22,16.10
2013,10,15,15,23,16.00
2013,10,15,15,24,16.00
2013,10,15,15,25,15.90
2013,10,15,15,26,15.90
2013,10,15,15,27,15.80
2013,10,15,15,28,15.70
2013,10,15,15,29,15.70
2013,10,15,15,30,15.60
2013,10,15,15,31,15.50
2013,10,15,15,32,15.50
2013,10,15,15,33,15.40
2013,10,15,15,34,15.30
2013,10,15,15,35,15.30
2013,10,15,15,36,15.30
2013,10,15,15,37,15.30
2013,10,15,15,38,15.30
2013,10,15,15,39,15.30
2013,10,15,15,40,15.30
2013,10,15,15,41,15.30
2013,10,15,15,42,15.30
2013,10,15,15,43,15.20
2013,10,15,15,44,15.10
2013,10,15,15,45,15.00
2013,10,15,15,46,15.00
2013,10,15,15,47,15.00
2013,10,15,15,48,14.90
2013,10,15,15,49,14.80
2013,10,15,15,50,14.80
2013,10,15,15,51,14.80
2013,10,15,15,52,14.80
2013,10,15,15,53,14.80
2013,10,15,15,54,14.80
2013,10,15,15,55,14.90
2013,10,15,15,56,14.90
2013,10,15,15,57,14.90
2013,10,15,15,58,14.90
2013,10,15,15,59,15.00
2013,10,15,16,00,15.00
2013,10,15,16,01,15.00
2013,10,15,16,02,15.00
2013,10,15,16,03,15.00
2013,10,15,16,04,15.00
2013,10,15,16,05,15.00
2013,10,15,16,06,15.00
2013,10,15,16,07,15.10
2013,10,15,16,08,15.20
2013,10,15,16,09,15.30
2013,10,15,16,10,15.40
2013,10,15,16,11,15.50
2013,10,15,16,12,15.50
2013,10,15,16,13,15.60
2013,10,15,16,14,15.70
2013,10,15,16,15,15.70
2013,10,15,16,16,15.70
2013,10,15,16,17,15.70
2013,10,15,16,18,15.70
2013,10,15,16,19,15.60
2013,10,15,16,20,15.50
2013,10,15,16,21,15.50
2013,10,15,16,22,15.40
2013,10,15,16,23,15.40
2013,10,15,16,24,15.30
2013,10,15,16,25,15.30
2013,10,15,16,26,15.20
2013,10,15,16,27,15.10
2013,10,15,16,28,15.00
2013,10,15,16,29,15.00
2013,10,15,16,30,15.00
2013,10,15,16,31,14.90
2013,10,15,16,32,14.80
2013,10,15,16,33,14.70
2013,10,15,16,34,14.60
2013,10,15,16,35,14.60
2013,10,15,16,36,14.50
2013,10,15,16,37,14.50
2013,10,15,16,38,14.40
2013,10,15,16,39,14.40
2013,10,15,16,40,14.30
2013,10,15,16,41,14.30
2013,10,15,16,42,14.30
2013,10,15,16,43,14.30
2013,10,15,16,44,14.30
2013,10,15,16,45,14.20
2013,10,15,16,46,14.20
2013,10,15,16,47,14.20
2013,10,15,16,48,14.20
2013,10,15,16,49,14.20
2013,10,15,16,50,14.20
2013,10,15,16,51,14.20
2013,10,15,16,52,14.20
2013,10,15,16,53,14.10
2013,10,15,16,54,14.10
2013,10,15,16,55,14.10
2013,10,15,16,56,14.10
2013,10,15,16,57,14.10
2013,10,15,16,58,14.10
2013,10,15,16,59,14.10
2013,10,15,17,00,14.10
2013,10,15,17,01,14.00
2013,10,15,17,02,14.00
2013,10,15,17,03,13.90
2013,10,15,17,04,13.90
2013,10,15,17,05,13.80
2013,10,15,17,06,13.80
2013,10,15,17,07,13.80
2013,10,15,17,08,13.70
2013,10,15,17,09,13.70
2013,10,15,17,10,13.60
2013,10,15,17,11,13.60
2013,10,15,17,12,13.60
2013,10,15,17,13,13.70
2013,10,15,17,14,13.70
2013,10,15,17,15,13.70
2013,10,15,17,16,13.70
2013,10,15,17,17,13.70
2013,10,15,17,18,13.70
2013,10,15,17,19,13.70
2013,10,15,17,20,13.80
2013,10,15,17,21,13.80
2013,10,15,17,22,13.80
2013,10,15,17,23,13.80
2013,10,15,17,24,13.90
2013,10,15,17,25,13.80
2013,10,15,17,26,13.80
2013,10,15,17,27,13.80
2013,10,15,17,28,13.80
2013,10,15,17,29,13.80
2013,10,15,17,30,13.70
2013,10,15,17,31,13.70
2013,10,15,17,32,13.70
2013,10,15,17,33,13.70
2013,10,15,17,34,13.70
2013,10,15,17,35,13.60
2013,10,15,17,36,13.60
2013,10,15,17,37,13.60
2013,10,15,17,38,13.60
2013,10,15,17,39,13.60
2013,10,15,17,40,13.60
2013,10,15,17,41,13.50
2013,10,15,17,42,13.50
2013,10,15,17,43,13.50
2013,10,15,17,44,13.40
2013,10,15,17,45,13.40
2013,10,15,17,46,13.30
2013,10,15,17,47,13.30